Location: �terpigny
(49.8910°N, 2.9249°E)
Time: 06:09:16
(UTC+00:00)

NANOSAT C BR1 - Pass Details

Date: 07 July 2022
Orbit: 584 x 599 km, 98.0° (Epoch: 14 August)

Event Time Altitude Azimuth Distance (km) Brightness Sun altitude
Rises 02:03:07 0° 14° (NNE) 2,856 ? -12.0°
Reaches altitude 10° 02:05:17 10° 16° (NNE) 1,950 ? -11.8°
Maximum altitude 02:09:32 82° 104° (ESE) 613 ? -11.5°
Enters shadow 02:13:08 14° 192° (SSW) 1,684 ? -11.2°
